Starlink 35795

operational
NORAD ID: 66366 Int'l Des: 2025-254 Owner: SPXS Country: US Constellation: starlink
LEOCIRCULAR

Über Starlink 35795

Beschreibung wird geladen...

Live-Position

3D-Globus wird geladen...

Nächste Überflüge

Höhenverlauf

Altitude vs Time

uPlot chart will show altitude changes over time

Zweizeiliger Elementsatz

1 66366C 25254X 25311.11715278 .00521100 00000+0 77080-3 0 3110
2 66366 53.1599 93.7256 0009203 263.0314 117.9822 16.03602538 11
Epoch: 7. Nov. 2025 • Age: 24 hours

Aktueller Status

Höhe 263.4 km
Geschwindigkeit 7.75 km/s
Subsatellitenpunkt -3.99°S, 44.25°E
Startdatum 6. Nov. 2025
Alter 1 days
Typ internet

Technische Details

Klassifizierung Payload
Masse 575.00 kg
Trockenmasse 530.00 kg
Gesamtmasse 575.00 kg
Länge 0.30 m
Durchmesser 4.10 m
Spannweite 29.00 m
Form Box + pan
Hersteller SPXS
Bus-Typ Starlink V2MO
Phasenstatus In Orbit
Besitzer/Staat SPXS/US

Große Konstellationen

Loading constellations...